TimePST,TemperatureF,Dew PointF,Humidity,Sea Level PressureIn,VisibilityMPH,Wind Direction,Wind SpeedMPH,Gust SpeedMPH,PrecipitationIn,Events,Conditions,WindDirDegrees,DateUTC
12:53 AM,39.9,35.1,83,30.29,10.0,Calm,Calm,-,N/A,,Clear,0,2012-11-13 08:53:00
1:53 AM,39.9,35.1,83,30.27,10.0,Calm,Calm,-,N/A,,Clear,0,2012-11-13 09:53:00
2:53 AM,39.0,35.1,86,30.26,10.0,Calm,Calm,-,N/A,,Clear,0,2012-11-13 10:53:00
3:53 AM,37.4,35.6,93,30.26,10.0,Calm,Calm,-,N/A,,Clear,0,2012-11-13 11:53:00
4:53 AM,37.9,35.1,89,30.26,10.0,Calm,Calm,-,N/A,,Clear,0,2012-11-13 12:53:00
5:53 AM,37.0,34.0,89,30.26,9.0,Calm,Calm,-,N/A,,Clear,0,2012-11-13 13:53:00
6:53 AM,37.9,35.1,89,30.27,8.0,Calm,Calm,-,N/A,,Clear,0,2012-11-13 14:53:00
7:53 AM,39.9,37.0,89,30.27,9.0,Calm,Calm,-,N/A,,Clear,0,2012-11-13 15:53:00
8:53 AM,46.0,37.9,73,30.27,10.0,Calm,Calm,-,N/A,,Clear,0,2012-11-13 16:53:00
9:53 AM,51.1,39.0,63,30.25,10.0,ESE,3.5,-,N/A,,Clear,120,2012-11-13 17:53:00
10:53 AM,55.9,39.0,53,30.24,10.0,Calm,Calm,-,N/A,,Clear,0,2012-11-13 18:53:00
11:53 AM,59.0,39.0,48,30.22,10.0,NW,4.6,-,N/A,,Clear,310,2012-11-13 19:53:00
12:53 PM,61.0,39.0,44,30.17,10.0,Calm,Calm,-,N/A,,Clear,0,2012-11-13 20:53:00
1:53 PM,63.0,39.0,41,30.14,10.0,NW,3.5,-,N/A,,Clear,320,2012-11-13 21:53:00
2:53 PM,63.0,39.0,41,30.13,10.0,NNW,6.9,-,N/A,,Clear,330,2012-11-13 22:53:00
3:53 PM,62.1,39.0,43,30.13,10.0,NNW,6.9,-,N/A,,Clear,340,2012-11-13 23:53:00
4:53 PM,59.0,39.9,49,30.13,10.0,North,5.8,-,N/A,,Clear,360,2012-11-14 00:53:00
5:53 PM,57.0,42.1,57,30.13,10.0,NNE,4.6,-,N/A,,Clear,20,2012-11-14 01:53:00
6:53 PM,54.0,41.0,62,30.12,10.0,North,4.6,-,N/A,,Clear,10,2012-11-14 02:53:00
7:53 PM,50.0,42.1,74,30.12,10.0,West,3.5,-,N/A,,Clear,280,2012-11-14 03:53:00
8:53 PM,48.9,39.9,71,30.13,10.0,Calm,Calm,-,N/A,,Clear,0,2012-11-14 04:53:00
9:53 PM,48.0,39.9,74,30.13,10.0,NW,3.5,-,N/A,,Clear,320,2012-11-14 05:53:00
10:53 PM,50.0,39.9,68,30.14,10.0,Calm,Calm,-,N/A,,Clear,0,2012-11-14 06:53:00
11:53 PM,46.9,39.9,77,30.15,10.0,Calm,Calm,-,N/A,,Clear,0,2012-11-14 07:53:00